Miscellaneous Local Product
Issued by NWS Hastings, NE

Home | Current Version | Previous Version | Graphics & Text | Print | Product List | Glossary On
Versions: 1 2 3 4 5 6 7 8 9 10 11 12 13 14 15 16 17 18 19 20 21 22 23 24 25 26 27 28 29 30 31 32 33 34 35 36 37 38 39 40 41 42 43 44 45 46 47 48 49 50
216
AXUS43 KGID 231702
MISGRI

GID CWA HOURLY WEATHER ROUNDUP
NATIONAL WEATHER SERVICE HASTINGS NE
1200 PM CDT SUN JUL 23 2017

NOTE: "FAIR" INDICATES FEW OR NO CLOUDS BELOW 12,000 FEET WITH NO
SIGNIFICANT WEATHER AND/OR OBSTRUCTIONS TO VISIBILITY.

...SOUTH CENTRAL NEBRASKA...

CITY           SKY/WX    TMP DP  RH WIND       PRES   REMARKS
GRAND ISLAND   SUNNY     83  67  58 NW13      30.04S
HASTINGS       SUNNY     85  69  58 NW7       30.04S
KEARNEY        SUNNY     85  66  53 NW8       30.05F
ORD            SUNNY     85  55  35 NE8       30.05S
YORK           SUNNY     81  72  74 NW5       30.02R
AURORA         SUNNY     82  70  66 NW7       30.02S
LEXINGTON      SUNNY     83  66  57 CALM      30.07S
HOLDREGE       SUNNY     83  60  44 NE6       30.06F
HEBRON         SUNNY     87  66  49 NW6       30.00S HX  90

...NEBRASKA PANHANDLE...

CITY           SKY/WX    TMP DP  RH WIND       PRES   REMARKS
CHADRON        SUNNY     83  50  31 CALM      30.10F
ALLIANCE       SUNNY     85  50  29 E6        30.13S
SCOTTSBLUFF    SUNNY     84  55  36 E7        30.13S
SIDNEY         SUNNY     89  46  22 SW8       30.17S

...WESTERN AND NORTH CENTRAL NEBRASKA...

CITY           SKY/WX    TMP DP  RH WIND       PRES   REMARKS
VALENTINE      SUNNY     86  45  23 E7        30.09S
AINSWORTH      SUNNY     81  55  40 E6        30.10S
ONEILL         SUNNY     79  60  51 NE8       30.07S
BROKEN BOW     SUNNY     85  63  47 NE8       30.08S
IMPERIAL       SUNNY     88  49  25 VRB3      30.12S
NORTH PLATTE   SUNNY     89  50  26 N5        30.09S
MCCOOK         SUNNY     87  64  46 CALM      30.08S

...EASTERN NEBRASKA...

CITY           SKY/WX    TMP DP  RH WIND       PRES   REMARKS
NORFOLK        SUNNY     86  56  35 N12       30.02S
SO SIOUX CITY  SUNNY     84  58  40 N14       29.98F
TEKAMAH        SUNNY     85  66  53 N8        29.98R
COLUMBUS         N/A     83  65  54 N5        30.02R
ALBION         SUNNY     84  60  44 NE8       30.05R
OMAHA EPPLEY   MOSUNNY   88  67  49 VRB7      29.96S HX  91
OFFUTT AFB     SUNNY     85  70  60 W8        29.96S
MILLARD        SUNNY     87  70  57 NW7       29.97S HX  91
LINCOLN        SUNNY     85  70  60 NW7       29.99S
NEBRASKA CITY  MOSUNNY   84  78  82 CALM      29.96F HX  95
BEATRICE       MOSUNNY   86  75  69 NW5       29.98S HX  95
FALLS CITY     MOSUNNY   85  77  77 NW8       29.95S HX  95

...NORTHERN KANSAS...

CITY           SKY/WX    TMP DP  RH WIND       PRES   REMARKS
GOODLAND       SUNNY     86  56  35 VRB6      30.12S
HILL CITY      SUNNY     85  73  67 NE14      30.05F HX  91
NORTON         SUNNY     88  61  40 N8G16     30.06S
PHILLIPSBURG   SUNNY     88  66  48 N6        30.04S HX  90
SMITH CENTER     N/A     88  63  42 N6        30.03S
HAYS           SUNNY     87  68  52 NW5       30.03S HX  90
RUSSELL        SUNNY     88  65  46 NW5       30.01R HX  90
CONCORDIA      SUNNY     88  67  49 N8        30.00R HX  91
SALINA         SUNNY     88  69  53 N6        29.98F HX  92
TOPEKA         SUNNY     88  76  67 N8        29.93F HX  99



USA.gov is the U.S. government's official web portal to all federal, state and local government web resources and services.